GW1492 Weather Reports


Display with metric or nautical units.
time (UTC)temp
F
wind
direction
speed
MPH
gust
MPH
rain 1hr
in
rain 24hr
in
rain mn
in
humidity
%
barometer
mb
20260508154521 63 334 1.0 2.0 0.00 0.00 0.00 45 1018.9
20260508153937 62 222 1.0 2.0 0.00 0.00 0.00 53 1019.3
20260508153342 60 243 2.0 3.0 0.00 0.00 0.00 44 1019.3
20260508152746 61 215 1.0 2.0 0.00 0.00 0.00 52 1019.3
20260508151536 60 288 2.0 2.0 0.00 0.00 0.00 56 1019.3
20260508150945 61 247 1.0 1.0 0.00 0.00 0.00 56 1019.3
20260508145746 59 297 1.0 2.0 0.00 0.00 0.00 57 1019.3
20260508145148 58 276 1.0 2.0 0.00 0.00 0.00 62 1019.3
20260508143942 56 269 1.0 2.0 0.00 0.00 0.00 60 1019.3
20260508142727 54 291 1.0 2.0 0.00 0.00 0.00 72 1019.3
20260508142148 53 308 2.0 2.0 0.00 0.00 0.00 70 1018.9
20260508141518 52 225 4.0 5.0 0.00 0.00 0.00 54 1019.3
20260508140935 50 325 1.0 2.0 0.00 0.00 0.00 77 1018.9
20260508135748 49 313 2.0 2.0 0.00 0.00 0.00 83 1018.9
20260508135145 47 325 2.0 2.0 0.00 0.00 0.00 84 1019.3
20260508134522 46 323 2.0 2.0 0.00 0.00 0.00 86 1019.3
20260508133915 46 317 2.0 2.0 0.00 0.00 0.00 87 1019.3
20260508133312 45 314 1.0 2.0 0.00 0.00 0.00 88 1019.3
20260508132726 44 311 1.0 2.0 0.00 0.00 0.00 89 1019.3
20260508132122 44 309 0.0 0.0 0.00 0.00 0.00 91 1019.3
20260508130308 42 271 0.0 0.0 0.00 0.00 0.00 94 1018.9
20260508125126 41 228 0.0 0.0 0.00 0.00 0.00 94 1018.9
20260508123936 40 311 0.0 0.0 0.00 0.00 0.00 94 1018.9
20260508123350 39 323 0.0 0.0 0.00 0.00 0.00 94 1018.9
20260508122731 40 165 0.0 0.0 0.00 0.00 0.00 95 1018.9
20260508122120 40 197 0.0 0.0 0.00 0.00 0.00 95 1018.9
20260508121537 40 321 0.0 0.0 0.00 0.00 0.00 95 1018.9
20260508120920 39 347 0.0 0.0 0.00 0.00 0.00 95 1018.6
20260508115710 37 311 0.0 0.0 0.00 0.00 0.00 95 1018.9
20260508115148 36 281 0.0 0.0 0.00 0.00 0.00 95 1018.9
20260508114519 36 211 0.0 0.0 0.00 0.00 0.00 95 1018.6
20260508113930 36 200 0.0 0.0 0.00 0.00 0.00 95 1018.6
20260508113316 36 255 0.0 0.0 0.00 0.00 0.00 95 1018.6
20260508112719 35 213 0.0 0.0 0.00 0.00 0.00 94 1018.6
20260508112143 35 292 0.0 0.0 0.00 0.00 0.00 94 1018.6
20260508111542 36 230 0.0 0.0 0.00 0.00 0.00 94 1018.2
20260508110922 36 230 0.0 0.0 0.00 0.00 0.00 94 1018.2
20260508110326 35 223 0.0 0.0 0.00 0.00 0.00 94 1018.2
20260508105142 36 238 0.0 0.0 0.00 0.00 0.00 94 1018.2
20260508103936 36 226 0.0 0.0 0.00 0.00 0.00 94 1017.9
20260508103338 37 221 0.0 0.0 0.00 0.00 0.00 95 1017.9
20260508102715 36 298 0.0 0.0 0.00 0.00 0.00 94 1017.9
20260508102115 36 136 0.0 0.0 0.00 0.00 0.00 94 1017.9
20260508101512 36 226 0.0 0.0 0.00 0.00 0.00 94 1017.9
20260508100938 36 221 0.0 0.0 0.00 0.00 0.00 94 1017.9
20260508100331 36 214 0.0 0.0 0.00 0.00 0.00 94 1017.9
20260508095748 36 214 0.0 0.0 0.00 0.00 0.00 94 1017.9
20260508095130 36 139 0.0 0.0 0.00 0.00 0.00 94 1017.9
20260508094522 37 112 0.0 0.0 0.00 0.00 0.00 94 1017.9
20260508093943 36 346 1.0 1.0 0.00 0.00 0.00 94 1017.9
20260508092722 36 226 0.0 0.0 0.00 0.00 0.00 94 1017.9
20260508092142 36 237 0.0 0.0 0.00 0.00 0.00 94 1017.9
20260508091528 36 214 0.0 0.0 0.00 0.00 0.00 94 1017.9
20260508090932 37 144 0.0 0.0 0.00 0.00 0.00 94 1017.6
20260508085139 38 238 0.0 0.0 0.00 0.00 0.00 94 1017.6
20260508084547 38 82 0.0 0.0 0.00 0.00 0.00 94 1017.6
20260508083912 37 327 0.0 0.0 0.00 0.00 0.00 94 1017.6
20260508083313 38 215 0.0 0.0 0.00 0.00 0.00 94 1017.6
20260508082735 38 178 0.0 0.0 0.00 0.00 0.00 94 1017.6
20260508082150 38 99 0.0 1.0 0.00 0.00 0.00 94 1017.6
20260508081537 37 209 0.0 0.0 0.00 0.00 0.00 93 1017.6
20260508080328 39 106 0.0 0.0 0.00 0.00 0.00 94 1017.6
20260508075731 38 48 0.0 0.0 0.00 0.00 0.00 94 1017.6
20260508075120 37 280 0.0 0.0 0.00 0.00 0.00 93 1017.6
20260508074529 38 219 0.0 0.0 0.00 0.00 0.00 93 1017.6
20260508073327 37 222 0.0 0.0 0.00 0.00 0.00 93 1017.2
20260508072732 38 222 0.0 0.0 0.00 0.00 0.00 93 1017.6
20260508072115 38 194 0.0 0.0 0.00 0.00 0.00 93 1017.6
20260508071537 39 132 0.0 0.0 0.00 0.00 0.00 93 1017.6
20260508070950 38 337 0.0 0.0 0.00 0.00 0.00 93 1017.6
20260508070338 38 258 0.0 0.0 0.00 0.00 0.00 93 1017.2
20260508065738 38 213 0.0 0.0 0.00 0.00 0.00 92 1017.2
20260508065133 38 213 0.0 0.0 0.00 0.00 0.00 92 1017.2
20260508064520 39 180 0.0 0.0 0.00 0.00 0.00 92 1017.2
20260508063925 40 86 0.0 0.0 0.00 0.00 0.00 93 1017.2
20260508063318 39 29 0.0 0.0 0.00 0.00 0.00 93 1017.2
20260508062742 39 9 0.0 0.0 0.00 0.00 0.00 93 1017.2
20260508062146 39 249 0.0 0.0 0.00 0.00 0.00 93 1017.6
20260508061530 39 250 0.0 0.0 0.00 0.00 0.00 92 1017.2
20260508060909 39 185 0.0 0.0 0.00 0.00 0.00 92 1017.6
20260508060341 40 83 0.0 0.0 0.00 0.00 0.00 92 1017.6
20260508055751 40 16 0.0 0.0 0.00 0.00 0.00 92 1017.6
20260508055141 40 60 0.0 0.0 0.00 0.00 0.00 92 1017.9
20260508054544 40 175 0.0 0.0 0.00 0.00 0.00 92 1017.9
20260508052737 41 166 0.0 0.0 0.00 0.00 0.00 92 1017.9
20260508052132 42 332 0.0 1.0 0.00 0.00 0.00 93 1017.9
20260508051526 42 87 1.0 2.0 0.00 0.00 0.00 93 1017.9
20260508050945 42 354 0.0 0.0 0.00 0.00 0.00 93 1017.9
20260508050309 42 336 0.0 1.0 0.00 0.00 0.00 93 1017.9
20260508045724 42 342 0.0 0.0 0.00 0.00 0.00 93 1017.6
20260508045127 42 64 0.0 0.0 0.00 0.00 0.00 93 1017.6
20260508044542 42 11 0.0 0.0 0.00 0.00 0.00 93 1017.2
20260508043936 42 87 0.0 1.0 0.00 0.00 0.00 93 1017.6
20260508043347 43 87 0.0 1.0 0.00 0.00 0.00 93 1017.6
20260508042723 42 75 0.0 0.0 0.00 0.00 0.00 93 1017.2
20260508042141 43 100 0.0 1.0 0.00 0.00 0.00 93 1017.2
20260508041532 42 358 0.0 0.0 0.00 0.00 0.00 92 1016.9
20260508040318 43 150 0.0 1.0 0.00 0.00 0.00 92 1016.9
20260508035120 43 202 0.0 0.0 0.00 0.00 0.00 90 1017.2
20260508034526 43 340 1.0 2.0 0.00 0.00 0.00 91 1017.2
20260508033916 43 344 0.0 1.0 0.00 0.00 0.00 92 1017.2
20260508033321 43 65 0.0 1.0 0.00 0.00 0.00 93 1017.2
20260508032734 43 103 0.0 0.0 0.00 0.00 0.00 92 1017.2
20260508032146 43 83 0.0 0.0 0.00 0.00 0.00 92 1016.9
20260508031526 43 117 0.0 0.0 0.00 0.00 0.00 92 1016.9
20260508030931 43 45 0.0 0.0 0.00 0.00 0.00 92 1016.9
20260508030311 43 233 0.0 0.0 0.00 0.00 0.00 91 1016.9
20260508025719 43 214 0.0 0.0 0.00 0.00 0.00 91 1016.9
20260508025114 44 200 0.0 0.0 0.00 0.00 0.00 91 1016.5
20260508024525 44 269 0.0 0.0 0.00 0.00 0.00 91 1016.5
20260508023946 44 300 0.0 0.0 0.00 0.00 0.00 91 1016.5
20260508023341 45 324 0.0 0.0 0.00 0.00 0.00 90 1016.5
20260508022723 45 239 0.0 0.0 0.00 0.00 0.00 90 1016.5
20260508021515 45 108 1.0 2.0 0.00 0.00 0.00 89 1016.2
20260508020945 46 233 0.0 0.0 0.00 0.00 0.00 89 1016.5
20260508020349 46 48 0.0 0.0 0.00 0.00 0.00 89 1016.2
20260508015738 46 99 0.0 0.0 0.00 0.00 0.00 89 1016.2
20260508015145 46 262 0.0 0.0 0.00 0.00 0.00 89 1016.2
20260508014517 46 162 0.0 0.0 0.00 0.00 0.00 89 1015.9
20260508012725 47 4 0.0 0.0 0.00 0.00 0.00 88 1015.9
20260508011528 48 93 0.0 0.0 0.00 0.00 0.00 88 1015.5
20260508010935 48 237 0.0 0.0 0.00 0.00 0.00 87 1015.5
20260508010349 48 17 0.0 0.0 0.00 0.00 0.00 87 1015.2
20260508005736 48 124 0.0 0.0 0.00 0.00 0.00 87 1015.5
20260508003908 50 306 0.0 0.0 0.00 0.00 0.00 85 1015.2
20260508003340 50 339 2.0 2.0 0.00 0.00 0.00 84 1015.2
20260508002734 50 54 0.0 0.0 0.00 0.00 0.00 83 1015.2
20260508002110 51 321 0.0 0.0 0.00 0.00 0.00 86 1014.9
20260508001532 51 51 0.0 0.0 0.00 0.00 0.00 84 1015.2
20260508000949 51 357 1.0 2.0 0.00 0.00 0.00 83 1015.2
20260508000335 51 347 0.0 0.0 0.00 0.00 0.00 83 1014.9
20260507235747 52 344 2.0 2.0 0.00 0.00 0.00 83 1015.2
20260507235119 52 315 1.0 1.0 0.00 0.00 0.00 83 1015.2
20260507234551 52 319 1.0 2.0 0.00 0.00 0.00 84 1015.2
20260507233938 52 302 0.0 0.0 0.00 0.00 0.00 83 1015.5
20260507233347 52 343 1.0 2.0 0.00 0.00 0.00 84 1015.2
20260507231535 52 321 0.0 0.0 0.00 0.00 0.00 82 1014.9
20260507225744 54 145 0.0 1.0 0.00 0.00 0.00 75 1015.2
20260507225120 55 8 1.0 2.0 0.00 0.00 0.00 73 1015.2
20260507224527 54 69 1.0 2.0 0.00 0.00 0.00 75 1015.2
20260507223918 54 155 0.0 1.0 0.00 0.00 0.00 81 1015.2
20260507223338 53 61 0.0 0.0 0.00 0.00 0.00 81 1015.2
20260507222719 53 308 1.0 2.0 0.00 0.00 0.00 80 1015.2
20260507221516 54 156 2.0 2.0 0.00 0.00 0.00 74 1014.9
20260507220312 54 200 0.0 2.0 0.00 0.00 0.00 75 1014.5
20260507215738 54 104 1.0 2.0 0.00 0.00 0.00 75 1014.5
20260507215144 54 132 0.0 1.0 0.00 0.00 0.00 72 1014.9
20260507213944 54 92 0.0 1.0 0.00 0.00 0.00 73 1014.9
20260507212737 55 11 0.0 0.0 0.00 0.00 0.00 73 1014.5
20260507211532 56 165 0.0 0.0 0.00 0.00 0.00 70 1014.5
20260507210928 55 213 2.0 4.0 0.00 0.00 0.00 69 1014.5
20260507210344 55 98 1.0 2.0 0.00 0.00 0.00 72 1014.5
20260507204547 55 257 2.0 2.0 0.00 0.00 0.00 75 1014.5
20260507202737 55 212 0.0 0.0 0.00 0.00 0.00 76 1014.5
20260507202152 54 14 0.0 1.0 0.00 0.00 0.00 71 1014.2
20260507201538 54 204 3.0 4.0 0.00 0.00 0.00 74 1014.5
20260507200938 54 258 6.0 7.0 0.00 0.00 0.00 71 1014.5
20260507195752 55 299 2.0 4.0 0.00 0.00 0.00 73 1014.5
20260507195151 55 170 0.0 1.0 0.00 0.00 0.00 76 1014.9
20260507194514 55 184 0.0 0.0 0.00 0.00 0.00 78 1014.9
20260507193951 54 158 0.0 0.0 0.00 0.00 0.00 77 1015.2
20260507192732 54 100 4.0 4.0 0.00 0.00 0.00 76 1014.5
20260507192146 55 149 0.0 1.0 0.00 0.00 0.00 77 1014.9
20260507191535 54 308 2.0 3.0 0.00 0.00 0.00 77 1014.9
20260507190936 54 289 0.0 0.0 0.00 0.00 0.00 78 1014.9
20260507185724 53 213 1.0 2.0 0.00 0.00 0.00 80 1014.9
20260507185150 54 217 1.0 2.0 0.00 0.00 0.00 78 1015.2
20260507184549 54 331 0.0 1.0 0.00 0.00 0.00 78 1015.2
20260507183951 54 262 1.0 2.0 0.00 0.00 0.00 76 1015.5
20260507183308 54 237 0.0 1.0 0.00 0.00 0.00 80 1015.5
20260507182714 54 229 0.0 1.0 0.00 0.00 0.00 76 1015.2
20260507182150 54 188 0.0 0.0 0.00 0.00 0.00 79 1015.2
20260507181510 54 307 4.0 6.0 0.00 0.00 0.00 74 1015.2
20260507180927 54 76 1.0 2.0 0.00 0.00 0.00 75 1015.2
20260507180324 54 154 1.0 2.0 0.00 0.00 0.00 75 1015.2
20260507174520 52 70 2.0 3.0 0.00 0.00 0.00 79 1015.5
20260507173945 52 146 1.0 2.0 0.00 0.00 0.00 81 1015.5
20260507172732 52 32 0.0 1.0 0.00 0.00 0.00 83 1015.5
20260507172129 51 120 3.0 4.0 0.00 0.00 0.00 81 1015.5
20260507170911 52 35 0.0 1.0 0.00 0.00 0.00 82 1015.2
20260507170321 52 30 2.0 4.0 0.00 0.00 0.00 82 1015.5
20260507165750 51 344 0.0 0.0 0.00 0.00 0.00 82 1015.5
20260507165135 51 177 0.0 0.0 0.00 0.00 0.00 84 1015.5
20260507163923 50 129 2.0 2.0 0.00 0.00 0.00 84 1015.2
20260507162722 50 39 3.0 4.0 0.00 0.00 0.00 85 1015.5
20260507162152 50 2 2.0 3.0 0.00 0.00 0.00 86 1015.5
20260507161555 50 51 2.0 2.0 0.00 0.00 0.00 85 1015.2
20260507160923 51 275 0.0 0.0 0.00 0.00 0.00 87 1015.2
20260507160346 50 196 0.0 1.0 0.00 0.00 0.00 87 1015.5
20260507155731 50 51 1.0 2.0 0.00 0.00 0.00 87 1015.5
20260507155123 50 32 0.0 0.0 0.00 0.00 0.00 88 1015.2